| time (UTC) | temp F | wind direction | speed MPH | gust MPH | rain 1hr in | rain 24hr in | rain mn in | humidity % | barometer mb |
| 20260510112522 | 51 | 291 | 1.0 | 2.0 | 0.00 | 0.00 | 0.00 | 91 | 1016.2 |
| 20260510112022 | 51 | 291 | 1.0 | 2.0 | 0.00 | 0.00 | 0.00 | 90 | 1016.1 |
| 20260510111541 | 52 | 0 | 0.0 | 1.0 | 0.00 | 0.00 | 0.00 | 92 | 1016.0 |
| 20260510111022 | 51 | 134 | 0.0 | 0.0 | 0.00 | 0.00 | 0.00 | 91 | 1016.0 |
| 20260510110522 | 51 | 0 | 0.0 | 0.0 | 0.00 | 0.00 | 0.00 | 92 | 1015.8 |
| 20260510110044 | 51 | 0 | 0.0 | 0.0 | 0.00 | 0.00 | 0.00 | 91 | 1015.9 |
| 20260510105522 | 51 | 0 | 0.0 | 1.0 | 0.00 | 0.00 | 0.00 | 91 | 1015.8 |
| 20260510105022 | 51 | 0 | 0.0 | 1.0 | 0.00 | 0.00 | 0.00 | 91 | 1015.9 |
| 20260510104542 | 51 | 51 | 1.0 | 1.0 | 0.00 | 0.00 | 0.00 | 91 | 1015.8 |
| 20260510104021 | 51 | 0 | 0.0 | 0.0 | 0.00 | 0.00 | 0.00 | 91 | 1015.9 |
| 20260510103523 | 51 | 0 | 0.0 | 0.0 | 0.00 | 0.00 | 0.00 | 91 | 1016.0 |
| 20260510103047 | 51 | 0 | 0.0 | 0.0 | 0.00 | 0.00 | 0.00 | 91 | 1015.9 |
| 20260510102521 | 51 | 0 | 0.0 | 0.0 | 0.00 | 0.00 | 0.00 | 91 | 1015.8 |
| 20260510102022 | 51 | 0 | 0.0 | 0.0 | 0.00 | 0.00 | 0.00 | 91 | 1016.0 |
| 20260510101539 | 51 | 0 | 0.0 | 0.0 | 0.00 | 0.00 | 0.00 | 92 | 1016.0 |
| 20260510101021 | 51 | 0 | 0.0 | 1.0 | 0.00 | 0.00 | 0.00 | 92 | 1016.0 |
| 20260510100525 | 50 | 0 | 0.0 | 1.0 | 0.00 | 0.00 | 0.00 | 92 | 1015.9 |
| 20260510100043 | 51 | 321 | 0.0 | 1.0 | 0.00 | 0.00 | 0.00 | 92 | 1015.8 |
| 20260510095525 | 51 | 321 | 0.0 | 0.0 | 0.00 | 0.00 | 0.00 | 92 | 1015.8 |
| 20260510095021 | 50 | 321 | 0.0 | 0.0 | 0.00 | 0.00 | 0.00 | 92 | 1015.9 |
| 20260510094541 | 50 | 0 | 0.0 | 1.0 | 0.00 | 0.00 | 0.00 | 92 | 1015.9 |
| 20260510094022 | 50 | 310 | 0.0 | 1.0 | 0.00 | 0.00 | 0.00 | 92 | 1015.8 |
| 20260510093522 | 50 | 0 | 0.0 | 1.0 | 0.00 | 0.00 | 0.00 | 91 | 1015.9 |
| 20260510093040 | 50 | 0 | 0.0 | 1.0 | 0.00 | 0.00 | 0.00 | 91 | 1016.0 |
| 20260510092522 | 50 | 295 | 1.0 | 1.0 | 0.00 | 0.00 | 0.00 | 91 | 1016.0 |
| 20260510092022 | 50 | 294 | 0.0 | 1.0 | 0.00 | 0.00 | 0.00 | 91 | 1016.0 |
| 20260510091539 | 50 | 0 | 0.0 | 1.0 | 0.00 | 0.00 | 0.00 | 91 | 1015.9 |
| 20260510091021 | 50 | 0 | 0.0 | 1.0 | 0.00 | 0.00 | 0.00 | 91 | 1015.9 |
| 20260510090522 | 50 | 294 | 0.0 | 1.0 | 0.00 | 0.00 | 0.00 | 91 | 1015.9 |
| 20260510090056 | 50 | 0 | 0.0 | 1.0 | 0.00 | 0.00 | 0.00 | 91 | 1015.9 |
| 20260510085521 | 50 | 292 | 1.0 | 2.0 | 0.00 | 0.00 | 0.00 | 91 | 1015.9 |
| 20260510085021 | 50 | 288 | 1.0 | 2.0 | 0.00 | 0.00 | 0.00 | 90 | 1015.9 |
| 20260510084545 | 50 | 288 | 1.0 | 2.0 | 0.00 | 0.00 | 0.00 | 90 | 1015.9 |
| 20260510084029 | 50 | 303 | 1.0 | 2.0 | 0.00 | 0.00 | 0.00 | 90 | 1016.0 |
| 20260510083522 | 51 | 306 | 0.0 | 2.0 | 0.00 | 0.00 | 0.00 | 91 | 1015.8 |
| 20260510083053 | 51 | 0 | 0.0 | 0.0 | 0.00 | 0.00 | 0.00 | 90 | 1015.9 |
| 20260510082521 | 51 | 0 | 0.0 | 0.0 | 0.00 | 0.00 | 0.00 | 90 | 1015.9 |
| 20260510082022 | 51 | 0 | 0.0 | 0.0 | 0.00 | 0.00 | 0.00 | 90 | 1015.7 |
| 20260510081542 | 51 | 0 | 0.0 | 0.0 | 0.00 | 0.00 | 0.00 | 90 | 1015.7 |
| 20260510081021 | 51 | 0 | 0.0 | 0.0 | 0.00 | 0.00 | 0.00 | 90 | 1015.8 |
| 20260510080521 | 51 | 0 | 0.0 | 0.0 | 0.00 | 0.00 | 0.00 | 90 | 1015.8 |
| 20260510080041 | 51 | 0 | 0.0 | 0.0 | 0.00 | 0.00 | 0.00 | 90 | 1015.7 |
| 20260510075521 | 51 | 0 | 0.0 | 0.0 | 0.00 | 0.00 | 0.00 | 89 | 1015.7 |
| 20260510075022 | 51 | 0 | 0.0 | 0.0 | 0.00 | 0.00 | 0.00 | 90 | 1015.7 |
| 20260510074537 | 51 | 0 | 0.0 | 0.0 | 0.00 | 0.00 | 0.00 | 90 | 1015.6 |
| 20260510074021 | 51 | 0 | 0.0 | 0.0 | 0.00 | 0.00 | 0.00 | 90 | 1015.6 |
| 20260510073521 | 51 | 0 | 0.0 | 0.0 | 0.00 | 0.00 | 0.00 | 90 | 1015.7 |
| 20260510073037 | 51 | 0 | 0.0 | 0.0 | 0.00 | 0.00 | 0.00 | 89 | 1015.7 |
| 20260510072522 | 52 | 0 | 0.0 | 1.0 | 0.00 | 0.00 | 0.00 | 89 | 1015.7 |
| 20260510072026 | 52 | 0 | 0.0 | 1.0 | 0.00 | 0.00 | 0.00 | 89 | 1015.7 |
| 20260510071546 | 52 | 27 | 1.0 | 1.0 | 0.00 | 0.00 | 0.00 | 89 | 1015.7 |
| 20260510071021 | 52 | 28 | 0.0 | 2.0 | 0.00 | 0.00 | 0.00 | 89 | 1015.6 |
| 20260510070521 | 52 | 278 | 1.0 | 2.0 | 0.00 | 0.00 | 0.00 | 88 | 1015.9 |
| 20260510070045 | 52 | 289 | 1.0 | 2.0 | 0.00 | 0.00 | 0.00 | 87 | 1015.8 |
| 20260510065522 | 52 | 286 | 1.0 | 2.0 | 0.00 | 0.00 | 0.00 | 87 | 1015.8 |
| 20260510065026 | 52 | 295 | 1.0 | 2.0 | 0.00 | 0.00 | 0.00 | 87 | 1015.8 |
| 20260510064541 | 52 | 307 | 1.0 | 1.0 | 0.00 | 0.00 | 0.00 | 88 | 1015.8 |
| 20260510064023 | 52 | 0 | 0.0 | 0.0 | 0.00 | 0.00 | 0.00 | 88 | 1015.7 |
| 20260510063522 | 52 | 0 | 0.0 | 1.0 | 0.00 | 0.00 | 0.00 | 88 | 1015.7 |
| 20260510063041 | 52 | 0 | 0.0 | 1.0 | 0.00 | 0.00 | 0.00 | 88 | 1015.7 |
| 20260510062521 | 52 | 80 | 0.0 | 1.0 | 0.00 | 0.00 | 0.00 | 88 | 1015.7 |
| 20260510062021 | 52 | 0 | 0.0 | 0.0 | 0.00 | 0.00 | 0.00 | 87 | 1015.7 |
| 20260510061548 | 52 | 0 | 0.0 | 1.0 | 0.00 | 0.00 | 0.00 | 86 | 1015.7 |
| 20260510061022 | 52 | 0 | 0.0 | 1.0 | 0.00 | 0.00 | 0.00 | 86 | 1015.7 |
| 20260510060522 | 53 | 284 | 0.0 | 1.0 | 0.00 | 0.00 | 0.00 | 86 | 1015.8 |
| 20260510060048 | 52 | 0 | 0.0 | 1.0 | 0.00 | 0.00 | 0.00 | 85 | 1015.7 |
| 20260510055521 | 53 | 0 | 0.0 | 1.0 | 0.00 | 0.00 | 0.00 | 85 | 1015.7 |
| 20260510055021 | 52 | 284 | 0.0 | 2.0 | 0.00 | 0.00 | 0.00 | 84 | 1015.7 |
| 20260510054544 | 52 | 284 | 1.0 | 2.0 | 0.00 | 0.00 | 0.00 | 83 | 1015.8 |
| 20260510054022 | 53 | 289 | 2.0 | 2.0 | 0.00 | 0.00 | 0.00 | 83 | 1015.7 |
| 20260510053521 | 53 | 293 | 1.0 | 2.0 | 0.00 | 0.00 | 0.00 | 82 | 1015.8 |
| 20260510053043 | 53 | 293 | 1.0 | 1.0 | 0.00 | 0.00 | 0.00 | 83 | 1015.8 |
| 20260510052522 | 53 | 293 | 1.0 | 1.0 | 0.00 | 0.00 | 0.00 | 83 | 1015.8 |
| 20260510052022 | 53 | 0 | 0.0 | 1.0 | 0.00 | 0.00 | 0.00 | 83 | 1015.9 |
| 20260510051540 | 54 | 342 | 0.0 | 1.0 | 0.00 | 0.00 | 0.00 | 83 | 1016.0 |
| 20260510051022 | 54 | 0 | 0.0 | 1.0 | 0.00 | 0.00 | 0.00 | 83 | 1015.9 |
| 20260510050521 | 54 | 342 | 0.0 | 1.0 | 0.00 | 0.00 | 0.00 | 83 | 1016.0 |
| 20260510050038 | 54 | 305 | 0.0 | 1.0 | 0.00 | 0.00 | 0.00 | 83 | 1016.0 |
| 20260510045522 | 53 | 306 | 0.0 | 1.0 | 0.00 | 0.00 | 0.00 | 82 | 1016.0 |
| 20260510045022 | 53 | 266 | 1.0 | 2.0 | 0.00 | 0.00 | 0.00 | 83 | 1016.0 |
| 20260510044539 | 53 | 266 | 0.0 | 2.0 | 0.00 | 0.00 | 0.00 | 82 | 1016.1 |
| 20260510044021 | 54 | 264 | 1.0 | 2.0 | 0.00 | 0.00 | 0.00 | 82 | 1016.0 |
| 20260510043521 | 54 | 290 | 0.0 | 2.0 | 0.00 | 0.00 | 0.00 | 82 | 1015.9 |
| 20260510043037 | 54 | 290 | 0.0 | 2.0 | 0.00 | 0.00 | 0.00 | 82 | 1016.0 |
| 20260510042521 | 54 | 290 | 2.0 | 2.0 | 0.00 | 0.00 | 0.00 | 82 | 1016.0 |
| 20260510042024 | 54 | 298 | 1.0 | 2.0 | 0.00 | 0.00 | 0.00 | 81 | 1016.0 |
| 20260510041546 | 55 | 298 | 1.0 | 2.0 | 0.00 | 0.00 | 0.00 | 81 | 1016.0 |
| 20260510041021 | 55 | 320 | 1.0 | 2.0 | 0.00 | 0.00 | 0.00 | 81 | 1016.0 |
| 20260510040521 | 55 | 304 | 2.0 | 2.0 | 0.00 | 0.00 | 0.00 | 80 | 1015.9 |
| 20260510040043 | 56 | 293 | 1.0 | 2.0 | 0.00 | 0.00 | 0.00 | 78 | 1015.9 |
| 20260510035524 | 56 | 290 | 1.0 | 2.0 | 0.00 | 0.00 | 0.00 | 78 | 1015.8 |
| 20260510035022 | 57 | 290 | 1.0 | 2.0 | 0.00 | 0.00 | 0.00 | 77 | 1015.9 |
| 20260510034546 | 57 | 0 | 0.0 | 2.0 | 0.00 | 0.00 | 0.00 | 76 | 1015.8 |
| 20260510034022 | 57 | 290 | 1.0 | 2.0 | 0.00 | 0.00 | 0.00 | 75 | 1015.9 |
| 20260510033523 | 58 | 297 | 1.0 | 2.0 | 0.00 | 0.00 | 0.00 | 74 | 1015.8 |
| 20260510033044 | 58 | 311 | 1.0 | 2.0 | 0.00 | 0.00 | 0.00 | 73 | 1015.8 |
| 20260510032524 | 59 | 311 | 2.0 | 2.0 | 0.00 | 0.00 | 0.00 | 71 | 1015.8 |
| 20260510032022 | 59 | 311 | 0.0 | 1.0 | 0.00 | 0.00 | 0.00 | 70 | 1015.8 |
| 20260510031539 | 59 | 311 | 1.0 | 2.0 | 0.00 | 0.00 | 0.00 | 68 | 1015.9 |
| 20260510031022 | 60 | 311 | 1.0 | 2.0 | 0.00 | 0.00 | 0.00 | 67 | 1016.0 |
| 20260510030521 | 60 | 328 | 1.0 | 2.0 | 0.00 | 0.00 | 0.00 | 67 | 1015.9 |
| 20260510030045 | 61 | 292 | 1.0 | 3.0 | 0.00 | 0.00 | 0.00 | 68 | 1016.0 |
| 20260510025525 | 61 | 295 | 1.0 | 3.0 | 0.00 | 0.00 | 0.00 | 67 | 1016.0 |
| 20260510025021 | 61 | 314 | 1.0 | 4.0 | 0.00 | 0.00 | 0.00 | 68 | 1016.1 |
| 20260510024544 | 62 | 295 | 1.0 | 4.0 | 0.00 | 0.00 | 0.00 | 63 | 1016.1 |
| 20260510024024 | 62 | 259 | 2.0 | 4.0 | 0.00 | 0.00 | 0.00 | 61 | 1016.0 |
| 20260510023524 | 63 | 279 | 2.0 | 4.0 | 0.00 | 0.00 | 0.00 | 61 | 1016.2 |
| 20260510023040 | 63 | 271 | 2.0 | 4.0 | 0.00 | 0.00 | 0.00 | 60 | 1016.2 |
| 20260510022528 | 65 | 283 | 2.0 | 4.0 | 0.00 | 0.00 | 0.00 | 58 | 1016.3 |
| 20260510022022 | 66 | 265 | 2.0 | 4.0 | 0.00 | 0.00 | 0.00 | 55 | 1016.3 |
| 20260510021538 | 67 | 258 | 0.0 | 2.0 | 0.00 | 0.00 | 0.00 | 55 | 1016.3 |
| 20260510021023 | 67 | 239 | 0.0 | 2.0 | 0.00 | 0.00 | 0.00 | 55 | 1016.3 |
| 20260510020524 | 66 | 0 | 0.0 | 2.0 | 0.00 | 0.00 | 0.00 | 57 | 1016.5 |
| 20260510020047 | 66 | 0 | 1.0 | 2.0 | 0.00 | 0.00 | 0.00 | 56 | 1016.5 |
| 20260510015523 | 66 | 270 | 1.0 | 2.0 | 0.00 | 0.00 | 0.00 | 57 | 1016.5 |
| 20260510015021 | 65 | 288 | 1.0 | 2.0 | 0.00 | 0.00 | 0.00 | 58 | 1016.5 |
| 20260510014548 | 66 | 259 | 0.0 | 2.0 | 0.00 | 0.00 | 0.00 | 58 | 1016.7 |
| 20260510014024 | 65 | 261 | 0.0 | 2.0 | 0.00 | 0.00 | 0.00 | 57 | 1016.8 |
| 20260510013521 | 66 | 150 | 0.0 | 2.0 | 0.00 | 0.00 | 0.00 | 58 | 1016.7 |
| 20260510013045 | 66 | 263 | 1.0 | 3.0 | 0.00 | 0.00 | 0.00 | 56 | 1016.9 |
| 20260510012524 | 66 | 211 | 1.0 | 3.0 | 0.00 | 0.00 | 0.00 | 56 | 1017.0 |
| 20260510012021 | 66 | 216 | 1.0 | 4.0 | 0.00 | 0.00 | 0.00 | 56 | 1017.0 |
| 20260510011543 | 67 | 214 | 2.0 | 4.0 | 0.00 | 0.00 | 0.00 | 54 | 1017.1 |
| 20260510011021 | 67 | 311 | 1.0 | 4.0 | 0.00 | 0.00 | 0.00 | 55 | 1017.1 |
| 20260510010524 | 67 | 240 | 2.0 | 4.0 | 0.00 | 0.00 | 0.00 | 55 | 1017.2 |
| 20260510010041 | 68 | 226 | 0.0 | 4.0 | 0.00 | 0.00 | 0.00 | 56 | 1017.3 |
| 20260510005525 | 67 | 217 | 1.0 | 2.0 | 0.00 | 0.00 | 0.00 | 57 | 1017.3 |
| 20260510005025 | 66 | 316 | 1.0 | 3.0 | 0.00 | 0.00 | 0.00 | 57 | 1017.3 |
| 20260510004541 | 66 | 299 | 2.0 | 4.0 | 0.00 | 0.00 | 0.00 | 57 | 1017.3 |
| 20260510004026 | 66 | 248 | 2.0 | 4.0 | 0.00 | 0.00 | 0.00 | 57 | 1017.4 |
| 20260510003524 | 65 | 283 | 3.0 | 4.0 | 0.00 | 0.00 | 0.00 | 59 | 1017.4 |
| 20260510003100 | 65 | 322 | 2.0 | 5.0 | 0.00 | 0.00 | 0.00 | 60 | 1017.7 |
| 20260510002525 | 65 | 274 | 3.0 | 5.0 | 0.00 | 0.00 | 0.00 | 60 | 1017.6 |
| 20260510002021 | 65 | 2 | 3.0 | 4.0 | 0.00 | 0.00 | 0.00 | 59 | 1017.7 |
| 20260510001537 | 65 | 318 | 3.0 | 5.0 | 0.00 | 0.00 | 0.00 | 59 | 1017.7 |
| 20260510001021 | 65 | 270 | 3.0 | 5.0 | 0.00 | 0.00 | 0.00 | 60 | 1017.9 |
| 20260510000522 | 65 | 307 | 1.0 | 6.0 | 0.00 | 0.00 | 0.00 | 61 | 1017.9 |
| 20260510000046 | 64 | 283 | 4.0 | 7.0 | 0.00 | 0.00 | 0.00 | 60 | 1018.0 |
| 20260509235525 | 64 | 302 | 3.0 | 7.0 | 0.00 | 0.00 | 0.00 | 62 | 1018.1 |
| 20260509235025 | 64 | 295 | 5.0 | 8.0 | 0.00 | 0.00 | 0.00 | 61 | 1018.2 |
| 20260509234545 | 64 | 325 | 4.0 | 8.0 | 0.00 | 0.00 | 0.00 | 61 | 1018.4 |
| 20260509234022 | 64 | 304 | 5.0 | 6.0 | 0.00 | 0.00 | 0.00 | 61 | 1018.4 |
| 20260509233520 | 64 | 296 | 4.0 | 7.0 | 0.00 | 0.00 | 0.00 | 60 | 1018.5 |
| 20260509233041 | 64 | 269 | 3.0 | 7.0 | 0.00 | 0.00 | 0.00 | 61 | 1018.5 |
| 20260509232524 | 64 | 270 | 3.0 | 6.0 | 0.00 | 0.00 | 0.00 | 60 | 1018.6 |
| 20260509232025 | 64 | 274 | 4.0 | 7.0 | 0.00 | 0.00 | 0.00 | 60 | 1018.8 |
| 20260509231537 | 64 | 266 | 3.0 | 7.0 | 0.00 | 0.00 | 0.00 | 64 | 1018.9 |
| 20260509231021 | 63 | 292 | 4.0 | 8.0 | 0.00 | 0.00 | 0.00 | 64 | 1019.0 |
| 20260509230521 | 63 | 290 | 5.0 | 8.0 | 0.00 | 0.00 | 0.00 | 63 | 1019.1 |
| 20260509230048 | 64 | 306 | 4.0 | 7.0 | 0.00 | 0.00 | 0.00 | 62 | 1019.1 |
| 20260509225521 | 63 | 258 | 5.0 | 9.0 | 0.00 | 0.00 | 0.00 | 61 | 1019.3 |
| 20260509225020 | 63 | 276 | 4.0 | 9.0 | 0.00 | 0.00 | 0.00 | 61 | 1019.4 |
| 20260509224546 | 63 | 264 | 4.0 | 9.0 | 0.00 | 0.00 | 0.00 | 62 | 1019.5 |
| 20260509224021 | 63 | 247 | 5.0 | 8.0 | 0.00 | 0.00 | 0.00 | 62 | 1019.6 |
| 20260509223522 | 63 | 273 | 5.0 | 8.0 | 0.00 | 0.00 | 0.00 | 62 | 1019.5 |
| 20260509223046 | 63 | 272 | 5.0 | 9.0 | 0.00 | 0.00 | 0.00 | 63 | 1019.6 |
| 20260509222521 | 63 | 288 | 5.0 | 10.0 | 0.00 | 0.00 | 0.00 | 62 | 1019.7 |
| 20260509222021 | 63 | 297 | 7.0 | 10.0 | 0.00 | 0.00 | 0.00 | 62 | 1019.7 |
| 20260509221545 | 64 | 292 | 5.0 | 10.0 | 0.00 | 0.00 | 0.00 | 62 | 1019.9 |
| 20260509221021 | 64 | 304 | 4.0 | 10.0 | 0.00 | 0.00 | 0.00 | 62 | 1019.9 |
| 20260509220521 | 64 | 265 | 4.0 | 10.0 | 0.00 | 0.00 | 0.00 | 64 | 1020.0 |
| 20260509220043 | 64 | 275 | 6.0 | 10.0 | 0.00 | 0.00 | 0.00 | 61 | 1020.2 |
| 20260509215522 | 64 | 301 | 5.0 | 10.0 | 0.00 | 0.00 | 0.00 | 62 | 1020.2 |
| 20260509215021 | 64 | 304 | 5.0 | 8.0 | 0.00 | 0.00 | 0.00 | 62 | 1020.2 |
| 20260509214543 | 64 | 283 | 4.0 | 9.0 | 0.00 | 0.00 | 0.00 | 62 | 1020.1 |
| 20260509214024 | 63 | 267 | 6.0 | 9.0 | 0.00 | 0.00 | 0.00 | 61 | 1020.0 |
| 20260509213521 | 63 | 264 | 3.0 | 11.0 | 0.00 | 0.00 | 0.00 | 64 | 1020.1 |
| 20260509213042 | 62 | 261 | 6.0 | 11.0 | 0.00 | 0.00 | 0.00 | 67 | 1020.2 |
| 20260509212521 | 63 | 298 | 6.0 | 11.0 | 0.00 | 0.00 | 0.00 | 64 | 1020.3 |
| 20260509212023 | 63 | 283 | 5.0 | 9.0 | 0.00 | 0.00 | 0.00 | 67 | 1020.3 |
| 20260509211538 | 63 | 296 | 6.0 | 9.0 | 0.00 | 0.00 | 0.00 | 65 | 1020.4 |
| 20260509211021 | 63 | 282 | 4.0 | 8.0 | 0.00 | 0.00 | 0.00 | 67 | 1020.3 |
| 20260509210521 | 63 | 204 | 4.0 | 8.0 | 0.00 | 0.00 | 0.00 | 69 | 1020.3 |
| 20260509210039 | 62 | 276 | 5.0 | 11.0 | 0.00 | 0.00 | 0.00 | 71 | 1020.4 |
| 20260509205521 | 62 | 304 | 7.0 | 11.0 | 0.00 | 0.00 | 0.00 | 69 | 1020.3 |
| 20260509205021 | 63 | 281 | 5.0 | 8.0 | 0.00 | 0.00 | 0.00 | 68 | 1020.5 |
| 20260509204537 | 63 | 233 | 3.0 | 8.0 | 0.00 | 0.00 | 0.00 | 70 | 1020.4 |
| 20260509204021 | 62 | 301 | 5.0 | 8.0 | 0.00 | 0.00 | 0.00 | 70 | 1020.4 |
| 20260509203522 | 62 | 304 | 5.0 | 8.0 | 0.00 | 0.00 | 0.00 | 70 | 1020.2 |
| 20260509203051 | 63 | 293 | 4.0 | 10.0 | 0.00 | 0.00 | 0.00 | 70 | 1020.4 |
| 20260509202521 | 63 | 255 | 5.0 | 10.0 | 0.00 | 0.00 | 0.00 | 70 | 1020.4 |
| 20260509202020 | 62 | 248 | 6.0 | 10.0 | 0.00 | 0.00 | 0.00 | 69 | 1020.4 |
| 20260509201541 | 62 | 300 | 7.0 | 9.0 | 0.00 | 0.00 | 0.00 | 67 | 1020.5 |
| 20260509201026 | 63 | 264 | 5.0 | 9.0 | 0.00 | 0.00 | 0.00 | 66 | 1020.6 |
| 20260509200520 | 63 | 253 | 5.0 | 9.0 | 0.00 | 0.00 | 0.00 | 67 | 1020.6 |
| 20260509200057 | 63 | 300 | 6.0 | 9.0 | 0.00 | 0.00 | 0.00 | 67 | 1020.8 |
| 20260509195521 | 63 | 282 | 4.0 | 8.0 | 0.00 | 0.00 | 0.00 | 67 | 1020.7 |
| 20260509195020 | 63 | 268 | 5.0 | 8.0 | 0.00 | 0.00 | 0.00 | 68 | 1020.8 |
| 20260509194538 | 62 | 293 | 4.0 | 8.0 | 0.00 | 0.00 | 0.00 | 68 | 1020.7 |
| 20260509194022 | 62 | 296 | 5.0 | 8.0 | 0.00 | 0.00 | 0.00 | 71 | 1020.8 |
| 20260509193521 | 62 | 313 | 5.0 | 8.0 | 0.00 | 0.00 | 0.00 | 72 | 1020.9 |
| 20260509193038 | 61 | 288 | 5.0 | 8.0 | 0.00 | 0.00 | 0.00 | 71 | 1021.0 |
| 20260509192520 | 61 | 302 | 6.0 | 9.0 | 0.00 | 0.00 | 0.00 | 73 | 1021.0 |
| 20260509192021 | 61 | 287 | 6.0 | 9.0 | 0.00 | 0.00 | 0.00 | 72 | 1021.0 |
| 20260509191548 | 61 | 302 | 6.0 | 9.0 | 0.00 | 0.00 | 0.00 | 72 | 1021.0 |
| 20260509191020 | 61 | 297 | 7.0 | 10.0 | 0.00 | 0.00 | 0.00 | 73 | 1021.1 |
| 20260509190522 | 61 | 321 | 7.0 | 10.0 | 0.00 | 0.00 | 0.00 | 71 | 1021.1 |
| 20260509190039 | 62 | 278 | 6.0 | 10.0 | 0.00 | 0.00 | 0.00 | 70 | 1021.1 |
| 20260509185521 | 63 | 299 | 7.0 | 9.0 | 0.00 | 0.00 | 0.00 | 69 | 1021.3 |
| 20260509185022 | 63 | 302 | 5.0 | 9.0 | 0.00 | 0.00 | 0.00 | 67 | 1021.2 |
| 20260509184544 | 64 | 329 | 4.0 | 8.0 | 0.00 | 0.00 | 0.00 | 65 | 1021.1 |
| 20260509184021 | 65 | 2 | 2.0 | 7.0 | 0.00 | 0.00 | 0.00 | 64 | 1021.0 |
| 20260509183521 | 65 | 217 | 3.0 | 7.0 | 0.00 | 0.00 | 0.00 | 65 | 1021.1 |
| 20260509183043 | 65 | 215 | 2.0 | 6.0 | 0.00 | 0.00 | 0.00 | 65 | 1021.1 |
| 20260509182520 | 65 | 261 | 2.0 | 4.0 | 0.00 | 0.00 | 0.00 | 65 | 1021.3 |
| 20260509182021 | 65 | 255 | 2.0 | 4.0 | 0.00 | 0.00 | 0.00 | 67 | 1021.2 |
| 20260509181604 | 65 | 286 | 2.0 | 4.0 | 0.00 | 0.00 | 0.00 | 66 | 1021.4 |
| 20260509181021 | 65 | 158 | 1.0 | 5.0 | 0.00 | 0.00 | 0.00 | 66 | 1021.4 |
| 20260509180521 | 64 | 143 | 1.0 | 5.0 | 0.00 | 0.00 | 0.00 | 66 | 1021.5 |
| 20260509180109 | 64 | 190 | 2.0 | 4.0 | 0.00 | 0.00 | 0.00 | 66 | 1021.4 |
| 20260509175521 | 64 | 163 | 1.0 | 4.0 | 0.00 | 0.00 | 0.00 | 65 | 1021.4 |
| 20260509175021 | 64 | 193 | 2.0 | 4.0 | 0.00 | 0.00 | 0.00 | 67 | 1021.5 |
| 20260509174541 | 63 | 0 | 2.0 | 6.0 | 0.00 | 0.00 | 0.00 | 69 | 1021.4 |
| 20260509174020 | 62 | 162 | 3.0 | 6.0 | 0.00 | 0.00 | 0.00 | 71 | 1021.5 |
| 20260509173520 | 63 | 131 | 3.0 | 7.0 | 0.00 | 0.00 | 0.00 | 69 | 1021.4 |
| 20260509173044 | 62 | 156 | 2.0 | 7.0 | 0.00 | 0.00 | 0.00 | 71 | 1021.5 |
| 20260509172525 | 62 | 186 | 4.0 | 7.0 | 0.00 | 0.00 | 0.00 | 68 | 1021.5 |
| 20260509172020 | 61 | 167 | 2.0 | 5.0 | 0.00 | 0.00 | 0.00 | 73 | 1021.6 |
| 20260509171549 | 61 | 145 | 3.0 | 5.0 | 0.00 | 0.00 | 0.00 | 70 | 1021.6 |
| 20260509171021 | 61 | 354 | 3.0 | 5.0 | 0.00 | 0.00 | 0.00 | 70 | 1021.7 |
| 20260509170521 | 61 | 134 | 2.0 | 5.0 | 0.00 | 0.00 | 0.00 | 69 | 1021.6 |
| 20260509170048 | 61 | 131 | 3.0 | 5.0 | 0.00 | 0.00 | 0.00 | 70 | 1021.7 |
| 20260509165521 | 60 | 148 | 2.0 | 6.0 | 0.00 | 0.00 | 0.00 | 72 | 1021.8 |
| 20260509165021 | 60 | 77 | 3.0 | 10.0 | 0.00 | 0.00 | 0.00 | 71 | 1021.8 |
| 20260509164544 | 60 | 34 | 4.0 | 10.0 | 0.00 | 0.00 | 0.00 | 71 | 1021.8 |
| 20260509164020 | 60 | 75 | 5.0 | 10.0 | 0.00 | 0.00 | 0.00 | 72 | 1021.7 |
| 20260509163525 | 60 | 27 | 3.0 | 10.0 | 0.00 | 0.00 | 0.00 | 72 | 1021.8 |
| 20260509163043 | 60 | 89 | 3.0 | 10.0 | 0.00 | 0.00 | 0.00 | 71 | 1021.8 |
| 20260509162521 | 60 | 108 | 5.0 | 9.0 | 0.00 | 0.00 | 0.00 | 73 | 1021.8 |
| 20260509162021 | 59 | 80 | 4.0 | 9.0 | 0.00 | 0.00 | 0.00 | 73 | 1022.0 |
| 20260509161547 | 59 | 37 | 3.0 | 7.0 | 0.00 | 0.00 | 0.00 | 74 | 1022.0 |
| 20260509161021 | 59 | 96 | 3.0 | 7.0 | 0.00 | 0.00 | 0.00 | 75 | 1022.1 |
| 20260509160521 | 59 | 70 | 4.0 | 6.0 | 0.00 | 0.00 | 0.00 | 74 | 1022.2 |
| 20260509160042 | 59 | 94 | 4.0 | 6.0 | 0.00 | 0.00 | 0.00 | 74 | 1022.4 |
| 20260509155522 | 59 | 83 | 3.0 | 7.0 | 0.00 | 0.00 | 0.00 | 74 | 1022.4 |
| 20260509155025 | 58 | 92 | 4.0 | 8.0 | 0.00 | 0.00 | 0.00 | 74 | 1022.4 |
| 20260509154537 | 58 | 83 | 5.0 | 8.0 | 0.00 | 0.00 | 0.00 | 74 | 1022.4 |
| 20260509154027 | 58 | 84 | 3.0 | 7.0 | 0.00 | 0.00 | 0.00 | 77 | 1022.4 |
| 20260509153522 | 57 | 30 | 2.0 | 8.0 | 0.00 | 0.00 | 0.00 | 79 | 1022.4 |
| 20260509153056 | 56 | 58 | 3.0 | 8.0 | 0.00 | 0.00 | 0.00 | 79 | 1022.5 |
| 20260509152522 | 56 | 101 | 4.0 | 8.0 | 0.00 | 0.00 | 0.00 | 78 | 1022.5 |
| 20260509152023 | 56 | 82 | 3.0 | 7.0 | 0.00 | 0.00 | 0.00 | 79 | 1022.7 |
| 20260509151551 | 56 | 27 | 3.0 | 7.0 | 0.00 | 0.00 | 0.00 | 80 | 1022.6 |
| 20260509151023 | 55 | 82 | 3.0 | 7.0 | 0.00 | 0.00 | 0.00 | 80 | 1022.5 |
| 20260509150527 | 55 | 82 | 5.0 | 7.0 | 0.00 | 0.00 | 0.00 | 79 | 1022.6 |
| 20260509150042 | 55 | 80 | 3.0 | 6.0 | 0.00 | 0.00 | 0.00 | 81 | 1022.6 |
| 20260509145522 | 55 | 75 | 4.0 | 6.0 | 0.00 | 0.00 | 0.00 | 80 | 1022.6 |
| 20260509145023 | 54 | 76 | 3.0 | 7.0 | 0.00 | 0.00 | 0.00 | 81 | 1022.6 |
| 20260509144538 | 54 | 75 | 4.0 | 8.0 | 0.00 | 0.00 | 0.00 | 81 | 1022.7 |
| 20260509144022 | 54 | 77 | 5.0 | 8.0 | 0.00 | 0.00 | 0.00 | 81 | 1022.6 |
| 20260509143522 | 54 | 101 | 3.0 | 5.0 | 0.00 | 0.00 | 0.00 | 82 | 1022.7 |
| 20260509143056 | 54 | 98 | 4.0 | 6.0 | 0.00 | 0.00 | 0.00 | 82 | 1022.6 |
| 20260509142522 | 53 | 80 | 4.0 | 6.0 | 0.00 | 0.00 | 0.00 | 82 | 1022.7 |
| 20260509142022 | 53 | 77 | 3.0 | 6.0 | 0.00 | 0.00 | 0.00 | 83 | 1022.8 |
| 20260509141543 | 53 | 103 | 3.0 | 6.0 | 0.00 | 0.00 | 0.00 | 83 | 1022.8 |
| 20260509141023 | 53 | 71 | 3.0 | 6.0 | 0.00 | 0.00 | 0.00 | 83 | 1022.7 |
| 20260509140522 | 53 | 79 | 4.0 | 6.0 | 0.00 | 0.00 | 0.00 | 83 | 1022.7 |
| 20260509140046 | 53 | 85 | 4.0 | 6.0 | 0.00 | 0.00 | 0.00 | 83 | 1022.7 |
| 20260509135524 | 53 | 49 | 0.0 | 0.0 | 0.00 | 0.00 | 0.00 | 85 | 1022.8 |
| 20260509135022 | 53 | 0 | 0.0 | 0.0 | 0.00 | 0.00 | 0.00 | 85 | 1022.8 |
| 20260509134542 | 52 | 0 | 0.0 | 0.0 | 0.00 | 0.00 | 0.00 | 86 | 1022.9 |
| 20260509134026 | 52 | 0 | 0.0 | 0.0 | 0.00 | 0.00 | 0.00 | 86 | 1022.8 |
| 20260509133524 | 52 | 0 | 0.0 | 0.0 | 0.00 | 0.00 | 0.00 | 86 | 1022.9 |
| 20260509133055 | 52 | 0 | 0.0 | 0.0 | 0.00 | 0.00 | 0.00 | 86 | 1022.8 |
| 20260509132523 | 52 | 0 | 0.0 | 0.0 | 0.00 | 0.00 | 0.00 | 86 | 1022.8 |
| 20260509132022 | 52 | 0 | 0.0 | 0.0 | 0.00 | 0.00 | 0.00 | 87 | 1022.8 |
| 20260509131540 | 52 | 0 | 0.0 | 1.0 | 0.00 | 0.00 | 0.00 | 87 | 1022.8 |
| 20260509131023 | 52 | 0 | 0.0 | 2.0 | 0.00 | 0.00 | 0.00 | 87 | 1022.8 |
| 20260509130523 | 52 | 0 | 1.0 | 2.0 | 0.00 | 0.00 | 0.00 | 87 | 1022.7 |
| 20260509130037 | 52 | 86 | 0.0 | 2.0 | 0.00 | 0.00 | 0.00 | 87 | 1022.7 |
| 20260509125523 | 52 | 52 | 0.0 | 2.0 | 0.00 | 0.00 | 0.00 | 87 | 1022.6 |
| 20260509125020 | 51 | 51 | 1.0 | 2.0 | 0.00 | 0.00 | 0.00 | 86 | 1022.6 |
| 20260509124549 | 52 | 0 | 0.0 | 0.0 | 0.00 | 0.00 | 0.00 | 87 | 1022.6 |
| 20260509124020 | 52 | 0 | 0.0 | 0.0 | 0.00 | 0.00 | 0.00 | 88 | 1022.6 |
| 20260509123520 | 51 | 0 | 0.0 | 0.0 | 0.00 | 0.00 | 0.00 | 89 | 1022.7 |
| 20260509123046 | 51 | 0 | 0.0 | 0.0 | 0.00 | 0.00 | 0.00 | 89 | 1022.7 |
| 20260509122521 | 51 | 0 | 0.0 | 0.0 | 0.00 | 0.00 | 0.00 | 89 | 1022.7 |
| 20260509122022 | 51 | 0 | 0.0 | 0.0 | 0.00 | 0.00 | 0.00 | 90 | 1022.7 |
| 20260509121549 | 51 | 0 | 0.0 | 0.0 | 0.00 | 0.00 | 0.00 | 90 | 1022.7 |
| 20260509121020 | 50 | 0 | 0.0 | 0.0 | 0.00 | 0.00 | 0.00 | 90 | 1022.7 |
| 20260509120524 | 50 | 0 | 0.0 | 0.0 | 0.00 | 0.00 | 0.00 | 90 | 1022.8 |
| 20260509120052 | 50 | 0 | 0.0 | 0.0 | 0.00 | 0.00 | 0.00 | 90 | 1022.8 |
| 20260509115521 | 50 | 0 | 0.0 | 0.0 | 0.00 | 0.00 | 0.00 | 90 | 1022.8 |
| 20260509115021 | 50 | 0 | 0.0 | 0.0 | 0.00 | 0.00 | 0.00 | 90 | 1022.9 |
| 20260509114538 | 50 | 0 | 0.0 | 0.0 | 0.00 | 0.00 | 0.00 | 90 | 1022.8 |
| 20260509114021 | 50 | 0 | 0.0 | 0.0 | 0.00 | 0.00 | 0.00 | 90 | 1022.8 |
| 20260509113521 | 50 | 0 | 0.0 | 0.0 | 0.00 | 0.00 | 0.00 | 90 | 1022.8 |
| 20260509113039 | 50 | 0 | 0.0 | 0.0 | 0.00 | 0.00 | 0.00 | 91 | 1022.8 |